Hereford, TX

5:35 AM CDT on March 30, 2017 (GMT -0500)
Hereford Municipal

Weather History for KHRX - January, 2013

Change the Weather History Date:

Saturday, January 26, 2013

  Actual Average (KAMA) Record (KAMA)
Temperature  
Mean Temperature 48 °F -  
Max Temperature 64 °F 49 °F 78 °F (1975)
Min Temperature 32 °F 24 °F -5 °F (1966)
Degree Days  
Heating Degree Days 17    
Moisture  
Dew Point 33 °F    
Average Humidity 58    
Maximum Humidity 81    
Minimum Humidity 32    
Precipitation  
Precipitation 0.00 in - - ()
Sea Level Pressure  
Sea Level Pressure 30.05 in    
Wind  
Wind Speed - (North)    
Max Wind Speed -    
Max Gust Speed -    
Visibility 10 miles    
Events      
Averages and records for this station are not official NWS values.
T = Trace of Precipitation, MM = Missing Value Source: NWS Daily Summary

Daily Weather History Graph

Daily Weather History Graph

Search for Another Location

Airport or City:

Trip Planner

Search our weather history database for the weather conditions in past years. The results will help you decide how hot, cold, wet, or windy it might be!

Date:

Astronomy

Jan. 26, 2013 Rise Set
Actual Time 7:51 AM CST 6:12 PM CST
Civil Twilight 7:24 AM CST 6:39 PM CST
Nautical Twilight 6:54 AM CST 7:09 PM CST
Astronomical Twilight 6:24 AM CST 7:39 PM CST
Moon 6:07 PM CST (1/26) 7:12 AM CST (1/26)
Length of Visible Light 11h 14m
Length of Day
10h 20m
Full, 100% of the Moon is Illuminated
Jan 26
Full
Jan 26
Full
Feb 3
Last Quarter
Feb 10
New
Feb 17
First Quarter

Hourly Weather History & Observations

Time (CST) Temp. Dew Point Humidity Pressure Visibility Wind Dir Wind Speed Gust Speed Precip Events Conditions
12:15 AM 37.4 °F 28.4 °F 70% 30.17 in 10.0 mi North - - N/A   Clear
12:35 AM 37.4 °F 28.4 °F 70% 30.17 in 10.0 mi North - - N/A   Clear
12:55 AM 35.6 °F 26.6 °F 70% 30.16 in 10.0 mi North - - N/A   Clear
1:15 AM 37.4 °F 28.4 °F 70% 30.16 in 10.0 mi North - - N/A   Clear
1:35 AM 33.8 °F 26.6 °F 75% 30.16 in 10.0 mi North - - N/A   Clear
1:55 AM 35.6 °F 28.4 °F 75% 30.14 in 10.0 mi North - - N/A   Clear
2:15 AM 33.8 °F 26.6 °F 75% 30.14 in 10.0 mi North - - N/A   Clear
2:35 AM 32.0 °F 26.6 °F 80% 30.14 in 10.0 mi North - - N/A   Clear
2:55 AM 32.0 °F 26.6 °F 80% 30.14 in 10.0 mi North - - N/A   Clear
3:15 AM 33.8 °F 26.6 °F 75% 30.13 in 10.0 mi North - - N/A   Clear
3:35 AM 33.8 °F 26.6 °F 75% 30.13 in 10.0 mi North - - N/A   Clear
3:55 AM 32.0 °F 26.6 °F 80% 30.12 in 10.0 mi North - - N/A   Clear
4:15 AM 33.8 °F 26.6 °F 75% 30.11 in 10.0 mi North - - N/A   Clear
4:35 AM 33.8 °F 26.6 °F 75% 30.11 in 10.0 mi North - - N/A   Clear
4:55 AM 33.8 °F 26.6 °F 75% 30.11 in 10.0 mi North - - N/A   Clear
5:15 AM 33.8 °F 26.6 °F 75% 30.11 in 10.0 mi North - - N/A   Clear
5:35 AM 33.8 °F 26.6 °F 75% 30.10 in 10.0 mi North - - N/A   Clear
5:55 AM 33.8 °F 26.6 °F 75% 30.09 in 10.0 mi North - - N/A   Clear
6:15 AM 33.8 °F 26.6 °F 75% 30.09 in 10.0 mi North - - N/A   Clear
6:35 AM 33.8 °F 26.6 °F 75% 30.10 in 10.0 mi North - - N/A   Clear
7:15 AM 33.8 °F 26.6 °F 75% 30.11 in 10.0 mi North - - N/A   Clear
7:35 AM 33.8 °F 28.4 °F 81% 30.12 in 10.0 mi North - - N/A   Clear
7:55 AM 33.8 °F 28.4 °F 81% 30.12 in 10.0 mi North - - N/A   Clear
8:15 AM 37.4 °F 30.2 °F 75% 30.12 in 10.0 mi North - - N/A   Clear
8:35 AM 37.4 °F 30.2 °F 75% 30.12 in 10.0 mi North - - N/A   Clear
8:55 AM 39.2 °F 30.2 °F 70% 30.12 in 10.0 mi North - - N/A   Clear
9:15 AM 42.8 °F 32.0 °F 66% 30.11 in 10.0 mi North - - N/A   Clear
9:35 AM 44.6 °F 32.0 °F 61% 30.10 in 10.0 mi North - - N/A   Clear
9:55 AM 44.6 °F 32.0 °F 61% 30.10 in 10.0 mi North - - N/A   Clear
10:15 AM 46.4 °F 32.0 °F 57% 30.09 in 10.0 mi North - - N/A   Clear
10:35 AM 50.0 °F 32.0 °F 50% 30.10 in 10.0 mi North - - N/A   Clear
10:55 AM 51.8 °F 32.0 °F 47% 30.10 in 10.0 mi North - - N/A   Clear
11:15 AM 55.4 °F 32.0 °F 41% 30.09 in 10.0 mi North - - N/A   Clear
11:35 AM 53.6 °F 32.0 °F 44% 30.08 in 10.0 mi North - - N/A   Clear
11:55 AM 59.0 °F 32.0 °F 36% 30.08 in 10.0 mi North - - N/A   Clear
12:15 PM 59.0 °F 32.0 °F 36% 30.07 in 10.0 mi North - - N/A   Clear
12:35 PM 59.0 °F 33.8 °F 39% 30.05 in 10.0 mi North - - N/A   Clear
12:55 PM 59.0 °F 33.8 °F 39% 30.05 in 10.0 mi North - - N/A   Clear
1:15 PM 60.8 °F 33.8 °F 36% 30.04 in 10.0 mi North - - N/A   Clear
1:35 PM 62.6 °F 33.8 °F 34% 30.03 in 10.0 mi North - - N/A   Clear
1:55 PM 62.6 °F 33.8 °F 34% 30.02 in 10.0 mi North - - N/A   Clear
2:15 PM 62.6 °F 33.8 °F 34% 30.00 in 10.0 mi North - - N/A   Clear
2:35 PM 62.6 °F 33.8 °F 34% 30.00 in 10.0 mi North - - N/A   Clear
2:55 PM 64.4 °F 33.8 °F 32% 30.00 in 10.0 mi North - - N/A   Clear
3:15 PM 64.4 °F 35.6 °F 34% 29.99 in 10.0 mi North - - N/A   Clear
3:35 PM 64.4 °F 35.6 °F 34% 29.99 in 10.0 mi North - - N/A   Clear
3:55 PM 64.4 °F 35.6 °F 34% 29.99 in 10.0 mi North - - N/A   Clear
4:15 PM 62.6 °F 35.6 °F 37% 29.98 in 10.0 mi North - - N/A   Clear
4:35 PM 62.6 °F 35.6 °F 37% 29.97 in 10.0 mi North - - N/A   Clear
4:55 PM 60.8 °F 35.6 °F 39% 29.97 in 10.0 mi North - - N/A   Clear
5:15 PM 60.8 °F 35.6 °F 39% 29.96 in 10.0 mi North - - N/A   Clear
5:35 PM 60.8 °F 35.6 °F 39% 29.97 in 10.0 mi North - - N/A   Clear
5:55 PM 59.0 °F 35.6 °F 42% 29.97 in 10.0 mi North - - N/A   Clear
6:15 PM 59.0 °F 35.6 °F 42% 29.97 in 10.0 mi North - - N/A   Clear
6:35 PM 59.0 °F 37.4 °F 45% 29.96 in 10.0 mi North - - N/A   Clear
6:55 PM 57.2 °F 37.4 °F 48% 29.95 in 10.0 mi North - - N/A   Clear
7:15 PM 57.2 °F 37.4 °F 48% 29.95 in 10.0 mi North - - N/A   Clear
7:35 PM 55.4 °F 37.4 °F 51% 29.95 in 10.0 mi North - - N/A   Clear
7:55 PM 55.4 °F 39.2 °F 54% 29.94 in 10.0 mi North - - N/A   Clear
8:15 PM 55.4 °F 41.0 °F 58% 29.95 in 10.0 mi North - - N/A   Clear
8:35 PM 53.6 °F 41.0 °F 62% 29.95 in 10.0 mi North - - N/A   Clear
8:55 PM 53.6 °F 41.0 °F 62% 29.96 in 10.0 mi North - - N/A   Clear
9:15 PM 53.6 °F 41.0 °F 62% 29.94 in 10.0 mi North - - N/A   Clear
9:35 PM 53.6 °F 41.0 °F 62% 29.95 in 10.0 mi North - - N/A   Clear
9:55 PM 53.6 °F 42.8 °F 67% 29.95 in 10.0 mi North - - N/A   Clear
10:15 PM 53.6 °F 42.8 °F 67% 29.95 in 10.0 mi North - - N/A   Clear
10:35 PM 53.6 °F 42.8 °F 67% 29.95 in 10.0 mi North - - N/A   Clear
10:55 PM 53.6 °F 42.8 °F 67% 29.94 in 10.0 mi North - - N/A   Clear
11:15 PM 51.8 °F 42.8 °F 71% 29.94 in 10.0 mi North - - N/A   Clear
11:35 PM 51.8 °F 42.8 °F 71% 29.95 in 10.0 mi North - - N/A   Clear
11:55 PM 51.8 °F 42.8 °F 71% 29.95 in 10.0 mi North - - N/A   Clear